一网星座-0564星 (ONEWEB-0564)

导读

ONEWEB-0564是英国OneWeb公司低轨宽带互联网星座的卫星之一,于北京时间2023年3月9日由SpaceX猎鹰9号火箭,从佛罗里达卡纳维拉尔角航天站发射升空,此次任务共成功部署40颗OneWeb卫星,使在轨卫星总数达到582颗。OneWeb星座部署在近地轨道,单星质量约147kg,运行在约1200公里轨道,采用Ku波段通信,旨在为全球提供广覆盖、低延迟的高速宽带互联网服务。

Basic Information
目录编号:
55801
目录名称:
ONEWEB-0564
国际标识:
2023-029F
轨道中心:
EARTH
卫星名称:
一网星座-0564星
卫星全名:
一网星座-0564星 (ONEWEB-0564)
卫星状态:
在轨 (已飞行1283 天)
发射日期:
2023-03-09 UTC
国别 :
英国 (GB)
星等 :
--
This satellite is enrolled in the Space Conjunction Data Service (SCDS) and the current flight risk assessment level is: No High Risk
Orbit Information
数据来源 国际轨道数据 AOE轨道数据
星历时间 2026-09-12T06:51:51+0800
5小时前
查看轨道信息
2026-09-10T22:00:00+0800
1天前
查看轨道信息
半长轴 7559.912km 7559.909km
偏心率 0.0002189 0.0002111
轨道倾角 87.914° 87.913°
近地点辐角 99.047° 96.462°
升交点赤经 257.142° 257.416°
平近点角 261.091° 236.494°
近地点 1180.12km 1180.176km
远地点 1183.43km 1183.368km
周期 109.027分钟 109.027分钟
每日圈数 13.207715 13.207722
Detailed Information
平衡模式:
三轴稳定
覆盖范围:
全球
运营商:
一网卫星公司
运营商所在国:
英国
制造商(研发单位):
一网卫星公司
制造商所在国:
英国
使用方式:
暂无
Satellite Introduction
OneWeb卫星网络由648颗重约125公斤的微型卫星组成,运行在1200公里的轨道上。 每颗卫星都能够提供至少每秒8千兆位的吞吐量,以使用其高吞吐量的Ku频段有效载荷为家庭和移动平台提供互联网接入。该卫星仍在工作。
2D Orbit Map
3D Orbit Map
Orbit Altitude Analysis Chart
Orbit Inclination Analysis Chart
Orbit Comprehensive Analysis Chart
View Comprehensive Chart
Miss Distance Evolution Trend with All Objects
Collision Probability Evolution Trend with All Objects